Weather History for Upington, South Africa

Change the Weather History Date:

Tuesday, February 19, 2013

  Actual Average Record
Temperature  
Mean Temperature 84 °F -  
Max Temperature 99 °F 90 °F 102 °F (2007)
Min Temperature 70 °F 63 °F 32 °F (2006)
Cooling Degree Days 20    
Growing Degree Days 34 (Base 50)    
Moisture  
Dew Point 48 °F    
Average Humidity 30    
Maximum Humidity 57    
Minimum Humidity 7    
Precipitation  
Precipitation 0.00 in 0.05 in - ()
Sea Level Pressure  
Sea Level Pressure 29.86 in    
Wind  
Wind Speed 7 mph ()    
Max Wind Speed 20 mph    
Max Gust Speed 22 mph    
Visibility 6.2 miles    
Events      
Averages and records for this station are not official NWS values.
T = Trace of Precipitation, MM = Missing Value Source: Averaged Metar Reports

Daily Weather History Graph

Daily Weather History Graph

Search for Another Location

Airport:

Trip Planner

Search our weather history database for the weather conditions in past years. The results will help you decide how hot, cold, wet, or windy it might be!

Date:

Astronomy

Feb. 19, 2013 Rise Set
Actual Time 6:20 AM SAST 7:16 PM SAST
Civil Twilight 5:55 AM SAST 7:41 PM SAST
Nautical Twilight 5:27 AM SAST 8:09 PM SAST
Astronomical Twilight 4:57 AM SAST 8:39 PM SAST
Moon 2:36 PM SAST (2/19) 12:35 AM SAST (2/19)
Length of Visible Light 13h 45m
Length of Day
12h 56m
Waxing Gibbous, 64% of the Moon is Illuminated
Feb 19
Waxing Gibbous
Feb 25
Full
Mar 4
Last Quarter
Mar 11
New
Mar 19
First Quarter

Hourly Weather History & Observations

Time (SAST) Temp. Heat Index Dew Point Humidity Pressure Visibility Wind Dir Wind Speed Gust Speed Precip Events Conditions
12:00 AM 82.4 °F - 48.2 °F 30% 29.83 in - West 5.8 mph - N/A   Unknown
1:00 AM 82.4 °F - 50.0 °F 32% 29.83 in 6.2 mi West 15.0 mph - N/A   Mostly Cloudy
2:00 AM 80 °F - 52 °F 27%  in 25 mi SSE 6.9 mph - -   Scattered Clouds
2:00 AM 78.8 °F - 51.8 °F 39% 29.83 in 6.2 mi SSE 6.9 mph - N/A   Mostly Cloudy
3:00 AM 77.0 °F - 53.6 °F 44% 29.80 in 6.2 mi SE 5.8 mph - N/A   Scattered Clouds
4:00 AM 75.2 °F - 53.6 °F 47% 29.83 in 6.2 mi Calm Calm - N/A   Partly Cloudy
5:00 AM 74 °F - 54 °F 40%  in 25 mi NW 8.1 mph - -   Scattered Clouds
5:00 AM 73.4 °F - 53.6 °F 50% 29.86 in 6.2 mi NW 8.1 mph - N/A   Partly Cloudy
6:00 AM 71.6 °F - 55.4 °F 57% 29.86 in 6.2 mi North 3.5 mph - N/A   Partly Cloudy
6:50 AM 75.2 °F - 53.6 °F 47% 29.89 in 6.2 mi NW 8.1 mph - N/A   Scattered Clouds
7:00 AM 75.2 °F - 55.4 °F 50% 29.92 in 6.2 mi NW 8.1 mph - N/A   Scattered Clouds
8:00 AM 78 °F - 56 °F 36%  in 25 mi Calm Calm - -   Scattered Clouds
8:00 AM 77.0 °F - 55.4 °F 47% 29.92 in 6.2 mi SSE 1.2 mph - N/A   Scattered Clouds
9:00 AM 78.8 °F - 55.4 °F 44% 29.92 in 6.2 mi SE 2.3 mph - N/A   Scattered Clouds
10:00 AM 82.4 °F 81.4 °F 53.6 °F 37% 29.92 in 6.2 mi SW 3.5 mph - N/A   Scattered Clouds
11:00 AM 89 °F - 53 °F 19%  in 25 mi North 3.5 mph - -   Scattered Clouds
11:00 AM 87.8 °F - 51.8 °F 29% 29.89 in 6.2 mi North 3.5 mph - N/A   Scattered Clouds
12:00 PM 87.8 °F - 48.2 °F 25% 29.89 in 6.2 mi NNW 6.9 mph - N/A   Scattered Clouds
1:00 PM 93.2 °F - 48.2 °F 21% 29.86 in 6.2 mi West 8.1 mph - N/A   Scattered Clouds
2:00 PM 95.0 °F - 48.2 °F 20% 29.83 in 6.2 mi WNW 9.2 mph 21.9 mph N/A   Scattered Clouds
3:00 PM 93.2 °F - 44.6 °F 19% 29.83 in 6.2 mi West 13.8 mph - N/A   Scattered Clouds
4:00 PM 96.8 °F - 41.0 °F 15% 29.83 in 6.2 mi West 12.7 mph - N/A   Scattered Clouds
5:00 PM 97 °F - 41 °F 7%  in 25 mi WSW 15.0 mph - -   Scattered Clouds
5:00 PM 96.8 °F - 39.2 °F 14% 29.80 in 6.2 mi WSW 13.8 mph - N/A   Scattered Clouds
6:00 PM 91.4 °F - 37.4 °F 15% 29.80 in 6.2 mi SW 12.7 mph - N/A   Partly Cloudy
7:00 PM 89.6 °F - 39.2 °F 17% 29.80 in 6.2 mi SW 13.8 mph - N/A   Partly Cloudy
8:00 PM 88 °F - 42 °F 12%  in 25 mi SW 12.7 mph - -   Scattered Clouds
8:00 PM 87.8 °F - 41.0 °F 19% 29.86 in 6.2 mi SW 12.7 mph - N/A   Partly Cloudy
9:00 PM 86.0 °F - 37.4 °F 18% 29.89 in 6.2 mi WSW 12.7 mph - N/A   Partly Cloudy
10:00 PM 82.4 °F - 37.4 °F 20% 29.92 in - WSW 12.7 mph - N/A   Unknown
11:00 PM 76 °F - 45 °F 22%  in - SSW 19.6 mph - -  
11:00 PM 75.2 °F - 44.6 °F 34% 29.95 in - SSW 19.6 mph - N/A   Unknown